Location: downtown San Diego
(32.7310°N, 117.1990°W)
Time: 00:39:19
(UTC-07:00)

Cosmos 1452 Rocket - Pass Details

Date: 14 June 2018
Orbit: 767 x 775 km, 74.1° (Epoch: 19 June)

Event Time Altitude Azimuth Distance (km) Brightness Sun altitude
Rises 22:27:18 0° 344° (NNW) 3,257 7.9 -24.5°
Reaches altitude 10° 22:29:42 10° 345° (NNW) 2,327 6.9 -24.8°
Maximum altitude 22:35:00 85° 73° (ENE) 782 3.4 -25.5°
Enters shadow 22:35:19 78° 137° (SE) 794 3.3 -25.5°
